This is the latest recevied weather packets stored in our database for station/object KF5JED-13. If no packets are shown the sender has not sent any weather packets the latest 10 day(s).
| Time | Temp. | Humidity | Pressure | Rain* | Wind** | Luminosity | Snow |
|---|---|---|---|---|---|---|---|
| 1777794976 | 11.11° C | 56% | 1019.9 hPa | 0 mm | - | 0 W/m² | - |
| 1777794673 | 11.11° C | 55% | 1019.9 hPa | 0 mm | - | 0 W/m² | - |
| 1777794368 | 11.11° C | 55% | 1020 hPa | 0 mm | - | 0 W/m² | - |
| 1777794064 | 11.11° C | 54% | 1020 hPa | 0 mm | - | 0 W/m² | - |
| 1777793761 | 11.11° C | 54% | 1020 hPa | 0 mm | - | 0 W/m² | - |
| 1777793459 | 11.11° C | 53% | 1020.1 hPa | 0 mm | - | 0 W/m² | - |
| 1777793156 | 11.11° C | 53% | 1020.1 hPa | 0 mm | - | 0 W/m² | - |
| 1777792854 | 11.11° C | 52% | 1020.1 hPa | 0 mm | - | 0 W/m² | - |
| 1777792550 | 10.56° C | 52% | 1020.2 hPa | 0 mm | - | 0 W/m² | - |
| 1777792247 | 10.56° C | 51% | 1020.2 hPa | 0 mm | - | 0 W/m² | - |
| 1777791943 | 10.56° C | 51% | 1020.2 hPa | 0 mm | - | 0 W/m² | - |
| 1777791642 | 11.11° C | 50% | 1020.4 hPa | 0 mm | - | 0 W/m² | - |
| 1777791339 | 11.11° C | 50% | 1020.2 hPa | 0 mm | - | 0 W/m² | - |
| 1777791037 | 11.11° C | 49% | 1020.4 hPa | 0 mm | - | 0 W/m² | - |
| 1777790734 | 11.11° C | 48% | 1020.6 hPa | 0 mm | - | 0 W/m² | - |
| 1777790431 | 11.11° C | 48% | 1020.5 hPa | 0 mm | - | 0 W/m² | - |
| 1777790128 | 11.11° C | 48% | 1020.2 hPa | 0 mm | - | 0 W/m² | - |
| 1777789827 | 11.11° C | 47% | 1020.6 hPa | 0 mm | - | 0 W/m² | - |
| 1777789525 | 11.11° C | 46% | 1020.2 hPa | 0 mm | - | 0 W/m² | - |
| 1777789223 | 11.11° C | 46% | 1020.4 hPa | 0 mm | - | 0 W/m² | - |
| 1777788920 | 11.67° C | 45% | 1020.2 hPa | 0 mm | - | 0 W/m² | - |
| 1777788616 | 11.67° C | 44% | 1020.2 hPa | 0 mm | - | 0 W/m² | - |
| 1777788315 | 11.67° C | 44% | 1020.4 hPa | 0 mm | - | 0 W/m² | - |
| 1777788012 | 12.22° C | 43% | 1020.2 hPa | 0 mm | - | 0 W/m² | - |
| 1777787707 | 11.11° C | 45% | 1020.4 hPa | 0 mm | - | 0 W/m² | - |
* Rain latest hour (hover to see other rain measurements)
** Current wind speed in m/s (hover to see current wind gust speed)